GW2402 Weather Reports


Display with metric or nautical units.
time (UTC)temp
F
wind
direction
speed
MPH
gust
MPH
rain 1hr
in
rain 24hr
in
rain mn
in
humidity
%
barometer
mb
20260904054554 82 0 0.0 2.0 0.00 0.00 0.00 80 1013.0
20260904053049 82 0 0.0 2.0 0.00 0.00 0.00 80 1012.8
20260904051606 82 274 0.0 1.0 0.00 0.00 0.00 80 1012.9
20260904050058 82 278 0.0 1.0 0.00 0.00 0.00 80 1012.8
20260904044553 82 0 0.0 1.0 0.00 0.00 0.00 80 1012.9
20260904043052 82 0 0.0 1.0 0.00 0.00 0.00 80 1012.6
20260904041559 82 0 0.0 1.0 0.00 0.00 0.00 80 1012.7
20260904040105 82 0 0.0 1.0 0.00 0.00 0.00 80 1012.8
20260904034554 82 0 0.0 1.0 0.00 0.00 0.00 79 1012.8
20260904033048 82 0 0.0 1.0 0.00 0.00 0.00 79 1012.7
20260904031546 82 0 0.0 1.0 0.00 0.00 0.00 78 1012.4
20260904030058 83 0 0.0 1.0 0.00 0.00 0.00 77 1012.4
20260904024549 83 0 0.0 1.0 0.00 0.00 0.00 76 1012.2
20260904023057 83 239 0.0 1.0 0.00 0.00 0.00 75 1012.3
20260904021606 84 0 0.0 1.0 0.00 0.00 0.00 74 1012.1
20260904020101 84 0 0.0 2.0 0.00 0.00 0.00 73 1012.0
20260904014600 85 266 0.0 2.0 0.00 0.00 0.00 71 1011.5
20260904013049 85 0 0.0 0.0 0.00 0.00 0.00 70 1011.1
20260904011559 86 0 0.0 0.0 0.00 0.00 0.00 69 1011.1
20260904010056 87 0 0.0 1.0 0.00 0.00 0.00 68 1011.2
20260904004553 87 0 0.0 1.0 0.00 0.00 0.00 67 1011.1
20260904003047 88 240 0.0 2.0 0.00 0.00 0.00 66 1011.0
20260904001559 89 0 0.0 1.0 0.00 0.00 0.00 65 1010.9
20260904000112 90 107 0.0 2.0 0.00 0.00 0.00 63 1010.8
20260903234553 91 231 0.0 4.0 0.00 0.00 0.00 62 1010.7
20260903233054 91 0 0.0 3.0 0.00 0.00 0.00 62 1010.6
20260903231556 91 232 0.0 3.0 0.00 0.00 0.00 63 1010.7
20260903230057 92 268 0.0 4.0 0.00 0.00 0.00 63 1010.5
20260903224629 93 0 1.0 3.0 0.00 0.00 0.00 62 1010.2
20260903223049 95 237 1.0 4.0 0.00 0.00 0.00 56 1010.1
20260903221555 96 133 0.0 4.0 0.00 0.00 0.00 52 1010.0
20260903220053 96 135 0.0 3.0 0.00 0.00 0.00 52 1010.2
20260903214608 97 117 0.0 2.0 0.00 0.00 0.00 52 1010.0
20260903213059 98 240 0.0 1.0 0.00 0.00 0.00 50 1010.0
20260903211603 100 226 0.0 2.0 0.00 0.00 0.00 49 1010.3
20260903210123 99 0 0.0 2.0 0.00 0.00 0.00 49 1010.2
20260903204552 99 0 0.0 2.0 0.00 0.00 0.00 50 1010.2
20260903203107 98 0 0.0 1.0 0.00 0.00 0.00 51 1010.6
20260903201555 98 0 0.0 2.0 0.00 0.00 0.00 52 1010.9
20260903200054 98 5 0.0 2.0 0.00 0.00 0.00 51 1011.0
20260903194546 98 0 0.0 1.0 0.00 0.00 0.00 52 1011.1
20260903193056 98 46 1.0 4.0 0.00 0.00 0.00 51 1011.4
20260903191549 97 226 0.0 1.0 0.00 0.00 0.00 53 1011.3
20260903190047 98 0 0.0 2.0 0.00 0.00 0.00 52 1011.8
20260903184546 96 27 1.0 3.0 0.00 0.00 0.00 53 1012.0
20260903183055 96 25 2.0 3.0 0.00 0.00 0.00 54 1012.2
20260903181552 96 0 0.0 4.0 0.00 0.00 0.00 55 1012.6
20260903180048 96 0 0.0 4.0 0.00 0.00 0.00 55 1012.7
20260903174546 94 270 0.0 2.0 0.00 0.00 0.00 58 1012.5
20260903173054 93 359 0.0 5.0 0.00 0.00 0.00 59 1012.9
20260903171550 93 146 1.0 5.0 0.00 0.00 0.00 61 1013.1
20260903170046 92 0 2.0 5.0 0.00 0.00 0.00 61 1013.3
20260903164602 92 353 1.0 5.0 0.00 0.00 0.00 63 1013.4
20260903163105 91 233 2.0 7.0 0.00 0.00 0.00 64 1013.3
20260903161548 91 265 0.0 3.0 0.00 0.00 0.00 66 1013.5
20260903160117 90 0 1.0 6.0 0.00 0.00 0.00 68 1013.3
20260903154608 88 6 1.0 8.0 0.00 0.00 0.00 69 1013.2
20260903153055 88 3 2.0 5.0 0.00 0.00 0.00 70 1013.3
20260903151549 87 5 1.0 7.0 0.00 0.00 0.00 72 1013.3
20260903150047 87 0 1.0 7.0 0.00 0.00 0.00 74 1013.3
20260903144604 86 331 1.0 5.0 0.00 0.00 0.00 75 1013.2
20260903143101 85 314 1.0 5.0 0.00 0.00 0.00 76 1013.3
20260903141603 85 24 1.0 5.0 0.00 0.00 0.00 78 1013.2
20260903140107 84 287 1.0 6.0 0.00 0.00 0.00 79 1013.3
20260903134559 83 0 0.0 3.0 0.00 0.00 0.00 81 1013.4
20260903133046 83 0 0.0 2.0 0.00 0.00 0.00 82 1013.3
20260903131553 82 27 0.0 5.0 0.00 0.00 0.00 83 1013.4
20260903130049 82 10 0.0 5.0 0.00 0.00 0.00 84 1013.4
20260903124555 81 0 0.0 1.0 0.00 0.00 0.00 85 1013.2
20260903123057 81 0 0.0 1.0 0.00 0.00 0.00 85 1013.1
20260903121549 81 0 0.0 1.0 0.00 0.00 0.00 85 1012.9
20260903120104 81 0 0.0 2.0 0.00 0.00 0.00 85 1012.9
20260903114603 81 0 0.0 1.0 0.00 0.00 0.00 85 1012.9
20260903113053 81 0 0.0 2.0 0.00 0.00 0.00 85 1012.6
20260903111549 81 0 0.0 1.0 0.00 0.00 0.00 86 1012.5
20260903110100 81 250 0.0 1.0 0.00 0.00 0.00 86 1012.7
20260903104559 81 65 0.0 4.0 0.00 0.00 0.00 86 1012.6
20260903103057 81 0 0.0 3.0 0.00 0.00 0.00 86 1012.4
20260903101556 81 0 0.0 1.0 0.00 0.00 0.00 86 1012.6
20260903100059 81 345 0.0 3.0 0.00 0.00 0.00 86 1012.5
20260903094605 81 223 0.0 2.0 0.00 0.00 0.00 86 1012.5
20260903093106 81 0 0.0 1.0 0.00 0.00 0.00 85 1012.6
20260903091600 81 0 0.0 1.0 0.00 0.00 0.00 85 1012.7
20260903090100 82 0 0.0 1.0 0.00 0.00 0.00 85 1012.7
20260903084547 82 7 0.0 2.0 0.00 0.00 0.00 84 1012.7
20260903083056 82 0 0.0 2.0 0.00 0.00 0.00 84 1012.8
20260903081555 82 231 0.0 1.0 0.00 0.00 0.00 83 1012.8
20260903080051 82 315 0.0 1.0 0.00 0.00 0.00 83 1012.8
20260903074557 82 0 0.0 3.0 0.00 0.00 0.00 82 1013.0
20260903073057 82 0 0.0 1.0 0.00 0.00 0.00 81 1012.9
20260903071549 83 270 0.0 2.0 0.00 0.00 0.00 81 1013.1
20260903064556 83 0 0.0 1.0 0.00 0.00 0.00 79 1013.1
20260903063114 83 0 0.0 4.0 0.00 0.00 0.00 78 1013.1
20260903061559 84 0 0.0 1.0 0.00 0.00 0.00 76 1013.1
20260903060115 84 0 0.0 2.0 0.00 0.00 0.00 74 1013.1